Regional Weather Roundup
Issued by NWS Upton, NY

Home | Current Version | Previous Version | Text Only | Print | Product List | Glossary On
Versions: 1 2 3 4 5 6 7 8 9 10 11 12 13 14 15 16 17 18 19 20 21 22 23 24 25 26 27 28
000
ASUS41 KOKX 261709
RWROKX

REGIONAL WEATHER ROUNDUP
NATIONAL WEATHER SERVICE NEW YORK NY
100 PM EDT TUE SEP 26 2017

NOTE: "FAIR" INDICATES FEW OR NO CLOUDS BELOW 12,000 FEET WITH NO
SIGNIFICANT WEATHER AND/OR OBSTRUCTIONS TO VISIBILITY.

NYZ071-072-176-178-NJZ106-104-261800-
NEW YORK CITY METRO AREA

CITY           SKY/WX    TMP DP  RH WIND       PRES   REMARKS
Central Park   MOSUNNY   81  66  60 E6        30.05F
Bronx Bot Gard   N/A     79  66  65 S8        30.05R
LaGuardia APRT PTSUNNY   78  68  71 NE6       30.02F
Kennedy INTL   PTSUNNY   76  68  76 S9        30.04F
Breezy Point     N/A     70 N/A N/A SE6         N/A
Newark/Liberty CLOUDY    80  66  62 SE7       30.02F
Teterboro      MOSUNNY   81  68  64 S5        30.01F
$$

NYZ177-179-078>081-261800-
LONG ISLAND NEW YORK

CITY           SKY/WX    TMP DP  RH WIND       PRES   REMARKS
Jones Beach      N/A     68 N/A N/A SE8         N/A
Matinecock PT    N/A     70 N/A N/A NE8         N/A
Farmingdale    MOSUNNY   78  68  71 S6        30.03F
MacArthur/ISP  PTSUNNY   79  69  71 SE6       30.02F
Shirley        MOSUNNY   82  70  66 VRB3      30.02F
Mt Sinai Harb    N/A     72 N/A N/A N5          N/A
Westhampton    MOSUNNY   75  67  76 CALM      30.04F
East Hampton   PTSUNNY   77  68  75 SE3       30.02F
Montauk          N/A     72  67  84 NE5       30.04F
$$

NYZ052-065-067-261800-
HUDSON VALLEY

CITY           SKY/WX    TMP DP  RH WIND       PRES   REMARKS
White Plains   MOSUNNY   79  68  69 VRB5      30.03F
Larchmont Harb   N/A     70 N/A N/A NE6         N/A
Croton On Huds   N/A     81 N/A N/A SW1         N/A
Newburgh       NOT AVBL
Montgomery     NOT AVBL
Poughkeepsie   MOSUNNY   85  66  53 CALM      30.00F
Albany         PTSUNNY   83  68  60 CALM      30.02F
$$

NJZ001-105-106-008-010-013-015-019>022-104-261800-
NEW JERSEY

CITY           SKY/WX    TMP DP  RH WIND       PRES   REMARKS
Newark/Liberty CLOUDY    80  66  62 SE7       30.02F
Teterboro      MOSUNNY   81  68  64 S5        30.01F
Caldwell       SUNNY     82  69  64 VRB3      30.03F
Somerville     NOT AVBL
Linden         FAIR      77  66  69 CALM      30.03F
Perth Amboy      N/A     70 N/A N/A SE8         N/A
Sussex         SUNNY     83  68  60 CALM      30.02F
Andover          N/A     85  68  56 N3        30.03F
Trenton        MOSUNNY   81  68  64 E8        30.01F
Millville      PTSUNNY   80  71  74 E8        30.00F
Atlantic City  PTSUNNY   77  70  78 E9        30.01F
Wrightstown    CLOUDY    78  68  72 NE10      29.99F
Toms River     MOSUNNY   76  68  76 E7        30.03F
Belmar         CLOUDY    72  67  84 VRB6      30.04F
$$

PAZ047>061-062-071-261800-
EASTERN PENNSYLVANIA

CITY           SKY/WX    TMP DP  RH WIND       PRES   REMARKS
Philadelphia   PTSUNNY   81  67  62 NE9       30.01F
Allentown      MOSUNNY   85  66  53 NE6       30.03F
Scranton       SUNNY     85  68  56 SW3       30.04F
$$

CTZ002-004>006-009-010-012-RIZ004-006-007-MAZ004-011-015-261800-
SOUTHERN NEW ENGLAND
 IN CT

CITY           SKY/WX    TMP DP  RH WIND       PRES   REMARKS
Bradley INTL   PTSUNNY   84  67  56 CALM      30.02F
Hartford       MOSUNNY   82  68  62 CALM      30.01F
Danbury        MOSUNNY   84  68  58 NE5       30.05S
Wtrbury/Oxford MOSUNNY   82  67  60 SE3       30.06S
Norwalk Harbor   N/A     70 N/A N/A CALM        N/A
Bridgeport     MOSUNNY   75  68  78 CALM      30.03F
Meriden        MOSUNNY   83  67  58 VRB5      30.02F
New Haven      PTSUNNY   73  67  81 W6        30.04F
Chester        FAIR      81  70  69 CALM      30.04F
Groton         MOSUNNY   73  67  81 S10       30.03F
Wilimantic     SUNNY     82  66  58 VRB3      30.03F

 IN RI

CITY           SKY/WX    TMP DP  RH WIND       PRES   REMARKS
Providence     PTSUNNY   81  71  71 SE9       30.04F
Block Island   SUNNY     73  69  87 N6        30.04F
Westerly       SUNNY     76  67  73 SE3       30.04F
 IN MA

CITY           SKY/WX    TMP DP  RH WIND       PRES   REMARKS
Boston         PTSUNNY   75  69  81 SE9       30.02F
Worcester      MOSUNNY   80  65  59 S3        30.05F
Westfield      MOSUNNY   82  69  64 S5        30.02F
Provincetown   MOSUNNY   73  68  84 SW6       30.03F
Nantucket      SUNNY     74  70  87 SW5       30.03F
$$

ANZ330-335-338-340-345-350-353-355-261800-
COASTAL MARINE OBSERVATIONS


STATION/POSITION TIME  SKY/WX   TEMP    WIND        PRES    VSBY  WAVE
                                AIR SEA DIR/SP/G                  HT/PER
                 (UTC)          (F)     (DEG/KT/KT) (MB)    (MI)  (FT/S)
NY HARB ENTRANCE 1550            67 72   60/  8/ 10 1016.8          5/11
20 S FIRE ISLAND 1550            65 69   80/  8/ 10 1017.4          7/14
GREAT SOUTH BAY  1615            69 73     CALM       N/A
23 SSW MONTAUK P 1550            65 66              1017.7         10/14
15 E BARNEGAT LI 1630               70                N/A           5/11
HUDSON CANYON    1550            67 68   60/ 14/ 16 1015.8         10/13
KINGS POINT      1624            72 73   40/  8/  8 1017.7
EXECUTION ROCKS  1645            73      40/  6/  8   N/A
WESTERN LI SOUND NOT AVBL
CENTRAL LI SOUND NOT AVBL
EASTERN LI SOUND NOT AVBL
ROBBINS REEF     1630            70     170/  9/ 12 1017.6
$$


>>>>>>>>>>>>>>>>>>>>>>>>>>>> KEY <<<<<<<<<<<<<<<<<<<<<<<<<<<
>                                                          <
>     SKY/WX - Sky Condition/Present Weather               <
>     TMP    - Temperature in Fahrenheit                   <
>     DP     - Dew Point in Fahrenheit                     <
>     RH     - Relative Humidity in Percent                <
>     WIND   - Direction (from) and Speed in MPH           <
>     PRES   - Mean Sea Level Pressure (inches of Hg)      <
>     WCI    - Wind Chill Index                            <
>     VSB    - VISIBILITY IN MILES                         <
>     HX     - HEAT INDEX                                  <
>     TC     - TEMPERATURE IN CELSIUS                      <
>     VRB    - VARIABLE WIND DIRECTION                     <
>                                                          <
>>>>>>>>>>>>>>>>>>>>>>>>>>>> KEY <<<<<<<<<<<<<<<<<<<<<<<<<<<




USA.gov is the U.S. government's official web portal to all federal, state and local government web resources and services.